Date String (YYYY-MM-DD hh:mm:ss) UTC,Instrument flags,Ambient pressure (hPa),Sample flow (lpm),Bypass flow (lpm),Sample temperature (°C),Ambient temperature (°C),ASC tube jacket temperature (°C),LED temperature (°C),Box temperature (°C),Sample RH (%),Span deviation,Mass concentration (μg/m³),Mass concentration (μg/m³),Mass concentration (μg/m³)
DateTimeUTC,F1_M11,P_M11,Q1_M11,Q2_M11,T1_M11,T2_M11,T3_M11,T4_M11,T5_M11,U1_M11,ZSPAN_M11,X2_M11,X0_M11,X1_M11
2021-12-24 04:00:00,,0811.3,4.99,0.00,23.9,23.2,00.0,32.9,25.6,19.6,0000.0,0000.31,0000.47,0000.25
2021-12-24 04:01:00,,0811.2,5.02,0.00,23.9,23.2,00.0,32.9,25.5,19.6,0000.0,0000.31,0000.47,0000.24
2021-12-24 04:02:00,,0811.2,4.98,0.00,23.8,23.1,00.0,32.9,25.5,19.6,0000.0,0000.34,0000.54,0000.24
2021-12-24 04:03:00,,0811.2,5.00,0.00,23.8,23.1,00.0,32.9,25.5,19.6,0000.0,0000.35,0000.58,0000.24
2021-12-24 04:04:00,,0811.2,5.01,0.00,23.8,23.1,00.0,32.9,25.5,19.5,0000.0,0000.33,0000.53,0000.24
2021-12-24 04:05:00,,0811.2,4.99,0.00,23.8,23.1,00.0,32.9,25.5,19.5,0000.0,0000.30,0000.47,0000.22
2021-12-24 04:06:00,,0811.1,5.01,0.00,23.8,23.1,00.0,32.9,25.5,19.3,0000.0,0000.30,0000.46,0000.22
2021-12-24 04:07:00,,0811.1,5.00,0.00,23.8,23.1,00.0,32.9,25.5,19.4,0000.0,0000.30,0000.47,0000.22
2021-12-24 04:08:00,,0811.1,4.99,0.00,23.8,23.0,00.0,32.9,25.4,19.5,0000.0,0000.28,0000.43,0000.21
2021-12-24 04:09:00,,0811.0,5.00,0.00,23.8,23.0,00.0,32.9,25.4,19.5,0000.0,0000.31,0000.50,0000.22
2021-12-24 04:10:00,,0811.0,5.00,0.00,23.8,23.0,00.0,32.9,25.4,19.5,0000.0,0000.32,0000.54,0000.22
2021-12-24 04:11:00,,0811.0,5.01,0.00,23.8,23.0,00.0,32.8,25.4,19.5,0000.0,0000.33,0000.55,0000.22
2021-12-24 04:12:00,,0811.1,5.01,0.00,23.8,23.0,00.0,32.8,25.4,19.5,0000.0,0000.33,0000.57,0000.23
2021-12-24 04:13:00,,0811.0,4.99,0.00,23.8,23.0,00.0,32.8,25.4,19.5,0000.0,0000.32,0000.56,0000.23
2021-12-24 04:14:00,,0811.0,5.00,0.00,23.8,23.0,00.0,32.8,25.4,19.4,0000.0,0000.32,0000.56,0000.23
2021-12-24 04:15:00,,0810.9,4.99,0.00,23.8,23.1,00.0,32.8,25.4,19.4,0000.0,0000.35,0000.63,0000.24
2021-12-24 04:16:00,,0811.0,5.00,0.00,23.8,23.1,00.0,32.8,25.5,19.4,0000.0,0000.39,0000.78,0000.25
2021-12-24 04:17:00,,0810.9,5.01,0.00,23.8,23.1,00.0,32.8,25.5,19.4,0000.0,0000.41,0000.91,0000.25
2021-12-24 04:18:00,,0810.9,4.98,0.00,23.8,23.1,00.0,32.8,25.5,19.4,0000.0,0000.42,0000.92,0000.26
2021-12-24 04:19:00,,0810.9,5.02,0.00,23.8,23.1,00.0,32.8,25.5,19.3,0000.0,0000.43,0000.95,0000.26
2021-12-24 04:20:00,,0810.8,4.99,0.00,23.8,23.1,00.0,32.8,25.5,19.4,0000.0,0000.41,0000.90,0000.26
2021-12-24 04:21:00,,0810.7,4.99,0.00,23.8,23.1,00.0,32.8,25.5,19.4,0000.0,0000.40,0000.86,0000.26
2021-12-24 04:22:00,,0810.6,5.01,0.00,23.8,23.1,00.0,32.8,25.5,19.4,0000.0,0000.42,0000.89,0000.27
2021-12-24 04:23:00,,0810.6,4.99,0.00,23.8,23.1,00.0,32.8,25.5,19.4,0000.0,0000.42,0000.88,0000.27
2021-12-24 04:24:00,,0810.6,5.01,0.00,23.9,23.1,00.0,32.8,25.5,19.4,0000.0,0000.41,0000.85,0000.28
2021-12-24 04:25:00,,0810.6,5.00,0.00,23.9,23.1,00.0,32.8,25.5,19.3,0000.0,0000.40,0000.81,0000.28
2021-12-24 04:26:00,,0810.6,5.01,0.00,23.9,23.1,00.0,32.9,25.6,19.3,0000.0,0000.39,0000.76,0000.28
2021-12-24 04:27:00,,0810.7,5.01,0.00,23.9,23.2,00.0,32.9,25.6,19.3,0000.0,0000.38,0000.73,0000.28
2021-12-24 04:28:00,,0810.8,4.99,0.00,23.9,23.2,00.0,32.9,25.6,19.3,0000.0,0000.37,0000.61,0000.28
2021-12-24 04:29:00,,0810.8,5.00,0.00,23.9,23.2,00.0,32.9,25.6,19.3,0000.0,0000.39,0000.62,0000.29
2021-12-24 04:30:00,,0810.8,5.01,0.00,23.9,23.2,00.0,32.9,25.5,19.3,0000.0,0000.38,0000.62,0000.29
2021-12-24 04:31:00,,0810.8,4.99,0.00,23.9,23.2,00.0,32.9,25.5,19.3,0000.0,0000.40,0000.70,0000.29
2021-12-24 04:32:00,,0810.7,5.00,0.00,23.9,23.1,00.0,32.9,25.6,19.3,0000.0,0000.40,0000.70,0000.29
2021-12-24 04:33:00,,0810.7,5.01,0.00,23.9,23.1,00.0,32.9,25.5,19.3,0000.0,0000.39,0000.68,0000.29
2021-12-24 04:34:00,,0810.6,4.99,0.00,23.9,23.1,00.0,32.9,25.5,19.4,0000.0,0000.38,0000.65,0000.28
2021-12-24 04:35:00,,0810.7,5.01,0.00,23.9,23.1,00.0,32.9,25.6,19.4,0000.0,0000.38,0000.67,0000.27
2021-12-24 04:36:00,,0810.6,5.00,0.00,23.9,23.1,00.0,32.9,25.6,19.4,0000.0,0000.39,0000.71,0000.27
2021-12-24 04:37:00,,0810.6,5.00,0.00,23.9,23.2,00.0,32.9,25.6,19.4,0000.0,0000.39,0000.72,0000.27
2021-12-24 04:38:00,,0810.6,5.00,0.00,24.0,23.2,00.0,32.9,25.6,19.5,0000.0,0000.37,0000.66,0000.25
2021-12-24 04:39:00,,0810.6,5.00,0.00,24.0,23.2,00.0,32.9,25.6,19.5,0000.0,0000.34,0000.60,0000.24
2021-12-24 04:40:00,,0810.6,5.00,0.00,24.0,23.2,00.0,32.9,25.6,19.5,0000.0,0000.33,0000.59,0000.23
2021-12-24 04:41:00,,0810.6,5.00,0.00,24.0,23.2,00.0,32.9,25.6,19.5,0000.0,0000.33,0000.60,0000.22
2021-12-24 04:42:00,,0810.6,5.00,0.00,24.0,23.2,00.0,32.9,25.6,19.6,0000.0,0000.30,0000.49,0000.22
2021-12-24 04:43:00,,0810.6,4.99,0.00,24.0,23.2,00.0,32.9,25.6,19.7,0000.0,0000.32,0000.52,0000.23
2021-12-24 04:44:00,,0810.5,5.00,0.00,24.0,23.2,00.0,32.9,25.6,19.7,0000.0,0000.32,0000.52,0000.23
2021-12-24 04:45:00,,0810.5,5.01,0.00,24.0,23.2,00.0,33.0,25.6,19.8,0000.0,0000.33,0000.54,0000.23
2021-12-24 04:46:00,,0810.4,4.99,0.00,24.0,23.1,00.0,33.0,25.6,19.8,0000.0,0000.34,0000.57,0000.24
2021-12-24 04:47:00,,0810.3,5.01,0.00,24.0,23.2,00.0,33.0,25.6,19.9,0000.0,0000.35,0000.57,0000.25
2021-12-24 04:48:00,,0810.2,4.99,0.00,24.0,23.2,00.0,33.0,25.6,19.9,0000.0,0000.35,0000.56,0000.25
2021-12-24 04:49:00,,0810.2,4.99,0.00,24.0,23.2,00.0,33.0,25.6,19.9,0000.0,0000.35,0000.57,0000.26
2021-12-24 04:50:00,,0810.2,5.00,0.00,24.0,23.2,00.0,33.0,25.7,20.0,0000.0,0000.36,0000.56,0000.27
2021-12-24 04:51:00,,0810.2,5.00,0.00,24.0,23.2,00.0,33.0,25.6,20.0,0000.0,0000.36,0000.55,0000.28
2021-12-24 04:52:00,,0810.2,5.00,0.00,24.0,23.1,00.0,33.0,25.6,20.0,0000.0,0000.38,0000.57,0000.28
2021-12-24 04:53:00,,0810.1,4.99,0.00,24.0,23.1,00.0,33.0,25.6,20.0,0000.0,0000.38,0000.56,0000.29
2021-12-24 04:54:00,,0810.1,5.01,0.00,24.0,23.1,00.0,33.0,25.7,19.9,0000.0,0000.37,0000.55,0000.28
2021-12-24 04:55:00,,0810.0,5.01,0.00,24.0,23.2,00.0,33.0,25.7,19.9,0000.0,0000.38,0000.63,0000.28
2021-12-24 04:56:00,,0809.9,4.99,0.00,24.0,23.2,00.0,33.0,25.7,19.9,0000.0,0000.37,0000.60,0000.28
2021-12-24 04:57:00,,0809.9,4.99,0.00,24.0,23.2,00.0,33.0,25.7,19.9,0000.0,0000.35,0000.56,0000.27
2021-12-24 04:58:00,,0809.9,5.01,0.00,24.1,23.2,00.0,33.0,25.7,19.8,0000.0,0000.33,0000.55,0000.27
2021-12-24 04:59:00,,0809.8,4.99,0.00,24.0,23.2,00.0,33.0,25.7,19.8,0000.0,0000.33,0001.02,0000.26
